{"data":{"norad_id":68627,"epoch":"2026-05-25T00:55:47.612064Z","epoch_age_seconds":65001,"freshness":"FRESH","line1":"1 68627U 26074A   26145.03874551  .00006941  00000+0  29564-3 0  9997","line2":"2 68627  60.0173 267.1565 0023368 356.9764   3.1171 15.23769216  7251","mean_motion":15.23769216,"eccentricity":0.0023368,"inclination_deg":60.0173,"raan_deg":267.1565,"arg_perigee_deg":356.9764,"mean_anomaly_deg":3.1171,"bstar":0.00029564,"rev_number":725,"period_min":94.502499780124,"perigee_km":478.42378865063,"apogee_km":510.54366888861,"semimajor_km":6872.6207287696,"source":"CELESTRAK","updated_at":"2026-05-25T13:38:07.986500Z"}}